| time (UTC) | temp F | wind direction | speed MPH | gust MPH | rain 1hr in | rain 24hr in | rain mn in | humidity % | barometer mb |
| 20260507050046 | 53 | 90 | 0.0 | 2.0 | 0.00 | 0.01 | 0.00 | 81 | 1011.0 |
| 20260507045848 | 54 | 90 | 1.0 | 2.0 | 0.00 | 0.01 | 0.00 | 81 | 1011.4 |
| 20260507045340 | 54 | 91 | 1.0 | 2.0 | 0.00 | 0.01 | 0.00 | 82 | 1011.6 |
| 20260507044913 | 54 | 91 | 0.0 | 1.0 | 0.00 | 0.01 | 0.00 | 81 | 1011.5 |
| 20260507044547 | 54 | 91 | 0.0 | 1.0 | 0.00 | 0.01 | 0.00 | 80 | 1010.9 |
| 20260507044345 | 54 | 91 | 0.0 | 3.0 | 0.00 | 0.01 | 0.00 | 81 | 1011.3 |
| 20260507043341 | 54 | 309 | 0.0 | 2.0 | 0.00 | 0.01 | 0.00 | 80 | 1011.5 |
| 20260507043059 | 53 | 64 | 0.0 | 2.0 | 0.00 | 0.01 | 0.00 | 82 | 1011.0 |
| 20260507042853 | 54 | 64 | 0.0 | 2.0 | 0.00 | 0.01 | 0.00 | 81 | 1011.5 |
| 20260507042345 | 54 | 64 | 1.0 | 2.0 | 0.00 | 0.01 | 0.00 | 82 | 1011.4 |
| 20260507041838 | 54 | 65 | 0.0 | 1.0 | 0.00 | 0.01 | 0.00 | 83 | 1011.6 |
| 20260507041513 | 53 | 65 | 0.0 | 1.0 | 0.00 | 0.01 | 0.00 | 83 | 1011.0 |
| 20260507041411 | 54 | 65 | 0.0 | 1.0 | 0.00 | 0.01 | 0.00 | 84 | 1011.5 |
| 20260507040902 | 54 | 65 | 0.0 | 2.0 | 0.00 | 0.01 | 0.00 | 85 | 1011.7 |
| 20260507040414 | 54 | 65 | 1.0 | 2.0 | 0.00 | 0.01 | 0.00 | 83 | 1011.8 |
| 20260507040043 | 54 | 66 | 0.0 | 2.0 | 0.00 | 0.01 | 0.00 | 82 | 1011.2 |
| 20260507035842 | 54 | 66 | 0.0 | 2.0 | 0.00 | 0.06 | 0.01 | 83 | 1011.3 |
| 20260507035355 | 54 | 66 | 0.0 | 2.0 | 0.00 | 0.06 | 0.01 | 83 | 1011.3 |
| 20260507034848 | 54 | 63 | 0.0 | 3.0 | 0.00 | 0.06 | 0.01 | 81 | 1011.4 |
| 20260507034552 | 54 | 63 | 0.0 | 3.0 | 0.00 | 0.06 | 0.01 | 82 | 1010.9 |
| 20260507034340 | 54 | 63 | 1.0 | 5.0 | 0.00 | 0.06 | 0.01 | 82 | 1011.4 |
| 20260507033342 | 54 | 327 | 1.0 | 4.0 | 0.00 | 0.06 | 0.01 | 81 | 1012.0 |
| 20260507033056 | 54 | 336 | 2.0 | 4.0 | 0.00 | 0.06 | 0.01 | 81 | 1011.3 |
| 20260507032856 | 54 | 323 | 2.0 | 3.0 | 0.00 | 0.06 | 0.01 | 82 | 1011.7 |
| 20260507032349 | 55 | 338 | 1.0 | 2.0 | 0.00 | 0.06 | 0.01 | 83 | 1011.2 |
| 20260507031841 | 55 | 60 | 0.0 | 1.0 | 0.00 | 0.06 | 0.01 | 82 | 1011.1 |
| 20260507031513 | 54 | 60 | 0.0 | 3.0 | 0.00 | 0.06 | 0.01 | 82 | 1010.7 |
| 20260507031412 | 55 | 60 | 0.0 | 3.0 | 0.00 | 0.06 | 0.01 | 83 | 1011.4 |
| 20260507030843 | 55 | 101 | 1.0 | 3.0 | 0.00 | 0.06 | 0.01 | 84 | 1011.6 |
| 20260507030356 | 55 | 346 | 1.0 | 6.0 | 0.00 | 0.06 | 0.01 | 83 | 1011.6 |
| 20260507030047 | 54 | 347 | 1.0 | 6.0 | 0.00 | 0.06 | 0.01 | 83 | 1011.1 |
| 20260507025846 | 55 | 301 | 2.0 | 6.0 | 0.00 | 0.06 | 0.01 | 83 | 1011.6 |
| 20260507025339 | 55 | 67 | 2.0 | 4.0 | 0.00 | 0.06 | 0.01 | 84 | 1011.6 |
| 20260507024852 | 55 | 5 | 1.0 | 7.0 | 0.00 | 0.06 | 0.01 | 85 | 1011.6 |
| 20260507024554 | 55 | 342 | 1.0 | 7.0 | 0.00 | 0.06 | 0.01 | 87 | 1011.0 |
| 20260507024345 | 55 | 5 | 3.0 | 7.0 | 0.00 | 0.06 | 0.01 | 87 | 1011.5 |
| 20260507023838 | 56 | 95 | 1.0 | 4.0 | 0.00 | 0.06 | 0.01 | 87 | 1011.4 |
| 20260507023351 | 56 | 38 | 1.0 | 4.0 | 0.00 | 0.06 | 0.01 | 87 | 1011.5 |
| 20260507023045 | 55 | 169 | 0.0 | 1.0 | 0.00 | 0.06 | 0.01 | 86 | 1010.8 |
| 20260507022844 | 56 | 169 | 0.0 | 1.0 | 0.00 | 0.06 | 0.01 | 86 | 1011.2 |
| 20260507022337 | 56 | 169 | 0.0 | 1.0 | 0.00 | 0.06 | 0.01 | 85 | 1011.0 |
| 20260507021909 | 56 | 169 | 0.0 | 2.0 | 0.00 | 0.06 | 0.01 | 84 | 1010.8 |
| 20260507021547 | 56 | 273 | 0.0 | 2.0 | 0.00 | 0.06 | 0.01 | 84 | 1010.4 |
| 20260507021340 | 56 | 273 | 0.0 | 2.0 | 0.00 | 0.06 | 0.01 | 84 | 1010.9 |
| 20260507020852 | 57 | 261 | 0.0 | 2.0 | 0.00 | 0.06 | 0.01 | 85 | 1010.9 |
| 20260507020346 | 57 | 75 | 0.0 | 1.0 | 0.00 | 0.06 | 0.01 | 85 | 1010.7 |
| 20260507020057 | 56 | 75 | 0.0 | 1.0 | 0.00 | 0.06 | 0.01 | 86 | 1010.2 |
| 20260507015855 | 57 | 75 | 0.0 | 1.0 | 0.00 | 0.06 | 0.01 | 86 | 1010.7 |
| 20260507015347 | 57 | 75 | 0.0 | 1.0 | 0.00 | 0.06 | 0.01 | 84 | 1010.7 |
| 20260507014839 | 57 | 75 | 0.0 | 2.0 | 0.00 | 0.06 | 0.01 | 83 | 1010.7 |
| 20260507014553 | 56 | 75 | 0.0 | 2.0 | 0.00 | 0.06 | 0.01 | 83 | 1010.2 |
| 20260507014352 | 57 | 75 | 0.0 | 2.0 | 0.00 | 0.06 | 0.01 | 84 | 1010.7 |
| 20260507013904 | 57 | 293 | 0.0 | 2.0 | 0.00 | 0.06 | 0.01 | 82 | 1010.7 |
| 20260507013415 | 57 | 198 | 0.0 | 2.0 | 0.00 | 0.06 | 0.01 | 84 | 1010.7 |
| 20260507013048 | 56 | 198 | 0.0 | 2.0 | 0.00 | 0.06 | 0.01 | 83 | 1010.1 |
| 20260507012848 | 57 | 67 | 0.0 | 2.0 | 0.00 | 0.06 | 0.01 | 83 | 1010.6 |
| 20260507012343 | 57 | 49 | 1.0 | 3.0 | 0.00 | 0.06 | 0.01 | 82 | 1010.4 |
| 20260507011855 | 57 | 351 | 0.0 | 3.0 | 0.00 | 0.06 | 0.01 | 83 | 1010.5 |
| 20260507011512 | 57 | 344 | 2.0 | 3.0 | 0.00 | 0.06 | 0.01 | 84 | 1010.0 |
| 20260507011408 | 57 | 320 | 2.0 | 3.0 | 0.00 | 0.06 | 0.01 | 84 | 1010.8 |
| 20260507010353 | 58 | 273 | 0.0 | 3.0 | 0.00 | 0.06 | 0.01 | 82 | 1010.5 |
| 20260507010005 | 57 | 273 | 0.0 | 3.0 | 0.00 | 0.06 | 0.01 | 83 | 1009.8 |
| 20260507005902 | 58 | 62 | 0.0 | 1.0 | 0.00 | 0.06 | 0.01 | 83 | 1010.3 |
| 20260507005354 | 58 | 62 | 0.0 | 4.0 | 0.00 | 0.06 | 0.01 | 84 | 1010.0 |
| 20260507004847 | 58 | 56 | 1.0 | 2.0 | 0.00 | 0.06 | 0.01 | 86 | 1010.1 |
| 20260507004600 | 58 | 55 | 0.0 | 1.0 | 0.00 | 0.06 | 0.01 | 86 | 1009.5 |
| 20260507004359 | 58 | 55 | 0.0 | 1.0 | 0.00 | 0.06 | 0.01 | 85 | 1010.3 |
| 20260507003851 | 59 | 55 | 0.0 | 3.0 | 0.00 | 0.06 | 0.01 | 83 | 1010.3 |
| 20260507003343 | 59 | 55 | 1.0 | 2.0 | 0.00 | 0.06 | 0.01 | 82 | 1010.4 |
| 20260507003039 | 58 | 248 | 0.0 | 2.0 | 0.00 | 0.06 | 0.01 | 82 | 1010.2 |
| 20260507002836 | 59 | 248 | 0.0 | 2.0 | 0.00 | 0.06 | 0.01 | 81 | 1010.9 |
| 20260507002409 | 59 | 248 | 1.0 | 3.0 | 0.00 | 0.06 | 0.01 | 81 | 1011.0 |
| 20260507001840 | 59 | 246 | 2.0 | 3.0 | 0.00 | 0.06 | 0.01 | 83 | 1010.7 |
| 20260507001559 | 59 | 317 | 1.0 | 3.0 | 0.00 | 0.06 | 0.01 | 82 | 1009.8 |
| 20260507001354 | 59 | 288 | 1.0 | 3.0 | 0.00 | 0.06 | 0.01 | 81 | 1010.4 |
| 20260507000906 | 59 | 55 | 0.0 | 3.0 | 0.00 | 0.06 | 0.01 | 82 | 1010.4 |
| 20260507000400 | 60 | 284 | 1.0 | 3.0 | 0.00 | 0.06 | 0.01 | 82 | 1010.3 |
| 20260507000050 | 59 | 333 | 0.0 | 5.0 | 0.00 | 0.06 | 0.01 | 82 | 1009.7 |
| 20260506235847 | 60 | 334 | 1.0 | 5.0 | 0.00 | 0.08 | 0.01 | 83 | 1010.3 |
| 20260506235340 | 60 | 326 | 327.0 | 327.0 | 0.00 | 0.00 | 0.01 | 82 | 1010.1 |
| 20260506234852 | 60 | 38 | 0.0 | 1.0 | 0.00 | 0.08 | 0.01 | 86 | 1010.0 |
| 20260506234545 | 60 | 38 | 0.0 | 4.0 | 0.00 | 0.08 | 0.01 | 82 | 1009.2 |
| 20260506234345 | 60 | 38 | 0.0 | 4.0 | 0.00 | 0.08 | 0.01 | 83 | 1010.0 |
| 20260506233838 | 60 | 40 | 1.0 | 4.0 | 0.00 | 0.08 | 0.01 | 86 | 1010.0 |
| 20260506233351 | 60 | 329 | 2.0 | 4.0 | 0.00 | 0.08 | 0.01 | 86 | 1010.0 |
| 20260506233004 | 60 | 78 | 0.0 | 2.0 | 0.00 | 0.08 | 0.01 | 88 | 1009.2 |
| 20260506232905 | 60 | 78 | 0.0 | 2.0 | 0.00 | 0.08 | 0.01 | 88 | 1009.8 |
| 20260506232356 | 60 | 78 | 0.0 | 5.0 | 0.00 | 0.08 | 0.01 | 88 | 1009.8 |
| 20260506231849 | 61 | 78 | 1.0 | 5.0 | 0.00 | 0.08 | 0.01 | 87 | 1009.7 |
| 20260506231541 | 60 | 115 | 1.0 | 2.0 | 0.00 | 0.08 | 0.01 | 87 | 1008.8 |
| 20260506231341 | 61 | 115 | 0.0 | 3.0 | 0.00 | 0.08 | 0.01 | 86 | 1009.5 |
| 20260506230853 | 61 | 115 | 1.0 | 3.0 | 0.00 | 0.08 | 0.01 | 86 | 1009.2 |
| 20260506230406 | 61 | 213 | 0.0 | 4.0 | 0.00 | 0.08 | 0.01 | 85 | 1009.3 |
| 20260506230031 | 61 | 213 | 0.0 | 4.0 | 0.00 | 0.08 | 0.01 | 83 | 1008.4 |
| 20260506225338 | 62 | 74 | 1.0 | 4.0 | 0.00 | 0.10 | 0.01 | 81 | 1009.1 |
| 20260506224850 | 62 | 68 | 0.0 | 3.0 | 0.00 | 0.10 | 0.01 | 80 | 1009.3 |
| 20260506224504 | 62 | 294 | 1.0 | 4.0 | 0.00 | 0.10 | 0.01 | 78 | 1008.6 |
| 20260506224402 | 62 | 294 | 0.0 | 4.0 | 0.00 | 0.10 | 0.01 | 78 | 1009.3 |
| 20260506223837 | 63 | 287 | 1.0 | 7.0 | 0.00 | 0.10 | 0.01 | 80 | 1009.3 |
| 20260506223350 | 63 | 308 | 2.0 | 7.0 | 0.00 | 0.10 | 0.01 | 81 | 1009.0 |
| 20260506223045 | 62 | 49 | 1.0 | 6.0 | 0.00 | 0.10 | 0.01 | 80 | 1008.2 |
| 20260506222843 | 63 | 347 | 1.0 | 5.0 | 0.00 | 0.10 | 0.01 | 80 | 1008.9 |
| 20260506222415 | 63 | 33 | 1.0 | 5.0 | 0.00 | 0.10 | 0.01 | 81 | 1008.8 |
| 20260506221846 | 63 | 331 | 2.0 | 4.0 | 0.00 | 0.10 | 0.01 | 81 | 1008.8 |
| 20260506221610 | 63 | 345 | 1.0 | 3.0 | 0.00 | 0.10 | 0.01 | 81 | 1008.0 |
| 20260506221400 | 63 | 78 | 1.0 | 4.0 | 0.00 | 0.10 | 0.01 | 82 | 1008.7 |
| 20260506220929 | 63 | 355 | 1.0 | 6.0 | 0.00 | 0.10 | 0.01 | 81 | 1008.7 |
| 20260506220058 | 63 | 56 | 1.0 | 3.0 | 0.00 | 0.10 | 0.01 | 83 | 1008.1 |
| 20260506214603 | 64 | 48 | 1.0 | 5.0 | 0.00 | 0.11 | 0.01 | 84 | 1007.5 |
| 20260506213057 | 64 | 288 | 1.0 | 3.0 | 0.00 | 0.11 | 0.01 | 85 | 1007.2 |
| 20260506211556 | 64 | 207 | 0.0 | 3.0 | 0.00 | 0.11 | 0.01 | 86 | 1007.1 |
| 20260506210054 | 64 | 86 | 0.0 | 3.0 | 0.00 | 0.11 | 0.01 | 88 | 1006.9 |
| 20260506204559 | 65 | 37 | 1.0 | 5.0 | 0.00 | 0.14 | 0.01 | 84 | 1006.8 |
| 20260506203053 | 64 | 80 | 0.0 | 4.0 | 0.00 | 0.14 | 0.01 | 95 | 1006.6 |
| 20260506201653 | 64 | 143 | 0.0 | 0.0 | 0.00 | 0.14 | 0.01 | 97 | 1006.2 |
| 20260506200052 | 64 | 143 | 0.0 | 0.0 | 0.00 | 0.14 | 0.01 | 97 | 1006.0 |
| 20260506194552 | 64 | 143 | 0.0 | 0.0 | 0.00 | 0.19 | 0.01 | 97 | 1005.8 |
| 20260506193052 | 64 | 143 | 0.0 | 0.0 | 0.00 | 0.19 | 0.01 | 97 | 1005.9 |
| 20260506191552 | 64 | 143 | 0.0 | 0.0 | 0.00 | 0.19 | 0.01 | 97 | 1005.8 |
| 20260506190050 | 64 | 143 | 0.0 | 0.0 | 0.00 | 0.19 | 0.01 | 97 | 1006.1 |
| 20260506184549 | 63 | 143 | 0.0 | 0.0 | 0.00 | 0.30 | 0.01 | 98 | 1006.0 |
| 20260506183048 | 64 | 143 | 0.0 | 0.0 | 0.00 | 0.30 | 0.01 | 97 | 1006.0 |
| 20260506181548 | 63 | 143 | 0.0 | 0.0 | 0.00 | 0.30 | 0.01 | 97 | 1006.1 |
| 20260506180048 | 63 | 143 | 0.0 | 0.0 | 0.00 | 0.30 | 0.01 | 96 | 1006.4 |
| 20260506174555 | 64 | 143 | 0.0 | 0.0 | 0.00 | 0.44 | 0.01 | 95 | 1006.4 |
| 20260506174344 | 64 | 143 | 0.0 | 0.0 | 0.00 | 0.44 | 0.01 | 95 | 1007.3 |
| 20260506173837 | 64 | 143 | 0.0 | 0.0 | 0.00 | 0.44 | 0.01 | 95 | 1007.1 |
| 20260506173349 | 65 | 143 | 0.0 | 0.0 | 0.00 | 0.44 | 0.01 | 94 | 1007.2 |
| 20260506173003 | 64 | 143 | 0.0 | 0.0 | 0.00 | 0.44 | 0.01 | 94 | 1006.1 |
| 20260506172902 | 65 | 143 | 0.0 | 0.0 | 0.00 | 0.44 | 0.01 | 94 | 1007.0 |
| 20260506172354 | 64 | 143 | 0.0 | 0.0 | 0.00 | 0.44 | 0.01 | 94 | 1007.0 |
| 20260506171845 | 65 | 143 | 0.0 | 0.0 | 0.00 | 0.44 | 0.01 | 95 | 1007.0 |
| 20260506171538 | 64 | 143 | 0.0 | 0.0 | 0.00 | 0.44 | 0.01 | 95 | 1006.0 |
| 20260506171338 | 65 | 143 | 0.0 | 0.0 | 0.00 | 0.44 | 0.01 | 95 | 1007.0 |
| 20260506170851 | 65 | 143 | 0.0 | 0.0 | 0.00 | 0.44 | 0.01 | 94 | 1007.0 |
| 20260506170341 | 65 | 143 | 0.0 | 0.0 | 0.00 | 0.44 | 0.01 | 94 | 1006.9 |
| 20260506170012 | 64 | 143 | 0.0 | 0.0 | 0.00 | 0.44 | 0.01 | 94 | 1006.0 |
| 20260506165912 | 65 | 143 | 0.0 | 0.0 | 0.00 | 0.62 | 0.01 | 94 | 1006.9 |
| 20260506164556 | 64 | 143 | 0.0 | 0.0 | 0.00 | 0.62 | 0.01 | 93 | 1005.8 |
| 20260506164355 | 65 | 143 | 0.0 | 0.0 | 0.00 | 0.62 | 0.01 | 93 | 1006.8 |
| 20260506163847 | 64 | 143 | 0.0 | 0.0 | 0.00 | 0.62 | 0.01 | 92 | 1006.8 |
| 20260506163341 | 65 | 143 | 0.0 | 1.0 | 0.00 | 0.62 | 0.01 | 91 | 1006.8 |
| 20260506163055 | 64 | 143 | 0.0 | 1.0 | 0.00 | 0.62 | 0.01 | 91 | 1005.8 |
| 20260506162853 | 65 | 143 | 0.0 | 1.0 | 0.00 | 0.62 | 0.01 | 90 | 1006.8 |
| 20260506162406 | 65 | 143 | 0.0 | 1.0 | 0.01 | 0.62 | 0.01 | 89 | 1006.7 |
| 20260506161838 | 66 | 143 | 0.0 | 3.0 | 0.01 | 0.62 | 0.01 | 86 | 1006.6 |
| 20260506161558 | 65 | 143 | 0.0 | 3.0 | 0.01 | 0.62 | 0.01 | 85 | 1005.7 |
| 20260506161351 | 66 | 143 | 0.0 | 3.0 | 0.01 | 0.62 | 0.01 | 84 | 1006.7 |
| 20260506160903 | 66 | 118 | 0.0 | 3.0 | 0.01 | 0.62 | 0.01 | 81 | 1006.7 |
| 20260506160356 | 66 | 178 | 1.0 | 6.0 | 0.01 | 0.62 | 0.01 | 80 | 1006.7 |
| 20260506160006 | 66 | 203 | 2.0 | 6.0 | 0.01 | 0.62 | 0.01 | 79 | 1005.7 |
| 20260506155906 | 67 | 181 | 3.0 | 5.0 | 0.01 | 0.64 | 0.01 | 79 | 1006.6 |
| 20260506155338 | 67 | 146 | 1.0 | 4.0 | 0.01 | 0.64 | 0.01 | 80 | 1006.6 |
| 20260506154850 | 67 | 95 | 1.0 | 6.0 | 0.01 | 0.64 | 0.01 | 81 | 1006.5 |
| 20260506154544 | 66 | 119 | 3.0 | 0.0 | 0.00 | 0.00 | 0.01 | 82 | 1005.5 |
| 20260506154342 | 66 | 207 | 2.0 | 8.0 | 0.01 | 0.64 | 0.01 | 81 | 1006.5 |
| 20260506153915 | 66 | 98 | 4.0 | 8.0 | 0.01 | 0.64 | 0.01 | 82 | 1006.5 |
| 20260506153347 | 65 | 276 | 3.0 | 7.0 | 0.01 | 0.64 | 0.01 | 83 | 1006.5 |
| 20260506153059 | 65 | 194 | 3.0 | 7.0 | 0.01 | 0.64 | 0.01 | 84 | 1005.5 |
| 20260506152859 | 65 | 248 | 3.0 | 7.0 | 0.01 | 0.64 | 0.01 | 84 | 1006.5 |
| 20260506152350 | 65 | 111 | 1.0 | 4.0 | 0.00 | 0.63 | 0.00 | 89 | 1006.7 |
| 20260506151844 | 64 | 228 | 1.0 | 4.0 | 0.00 | 0.63 | 0.00 | 90 | 1006.7 |
| 20260506151556 | 63 | 178 | 1.0 | 4.0 | 0.00 | 0.63 | 0.00 | 91 | 1005.7 |
| 20260506151356 | 64 | 144 | 1.0 | 4.0 | 0.00 | 0.63 | 0.00 | 91 | 1006.7 |
| 20260506144611 | 61 | 219 | 0.0 | 0.0 | 0.00 | 0.79 | 0.00 | 96 | 1005.6 |
| 20260506143056 | 60 | 219 | 0.0 | 0.0 | 0.00 | 0.79 | 0.00 | 97 | 1005.8 |
| 20260506141554 | 60 | 219 | 0.0 | 0.0 | 0.00 | 0.79 | 0.00 | 97 | 1005.7 |
| 20260506140106 | 59 | 219 | 0.0 | 0.0 | 0.00 | 0.79 | 0.00 | 98 | 1005.9 |
| 20260506134554 | 59 | 219 | 0.0 | 0.0 | 0.00 | 0.81 | 0.00 | 98 | 1006.2 |
| 20260506133116 | 58 | 219 | 0.0 | 0.0 | 0.00 | 0.81 | 0.00 | 98 | 1006.5 |
| 20260506131551 | 58 | 219 | 0.0 | 0.0 | 0.00 | 0.81 | 0.00 | 97 | 1006.6 |
| 20260506130133 | 58 | 219 | 0.0 | 0.0 | 0.00 | 0.81 | 0.00 | 97 | 1006.1 |
| 20260506124553 | 58 | 219 | 0.0 | 0.0 | 0.00 | 0.81 | 0.00 | 97 | 1005.9 |
| 20260506123049 | 57 | 219 | 0.0 | 0.0 | 0.00 | 0.81 | 0.00 | 96 | 1006.2 |
| 20260506121553 | 58 | 219 | 0.0 | 0.0 | 0.00 | 0.81 | 0.00 | 95 | 1006.3 |
| 20260506120047 | 57 | 219 | 0.0 | 0.0 | 0.00 | 0.81 | 0.00 | 94 | 1006.2 |
| 20260506114545 | 58 | 219 | 0.0 | 0.0 | 0.00 | 0.81 | 0.00 | 92 | 1006.2 |
| 20260506113049 | 58 | 219 | 0.0 | 0.0 | 0.00 | 0.81 | 0.00 | 89 | 1006.2 |
| 20260506111540 | 59 | 219 | 0.0 | 0.0 | 0.00 | 0.81 | 0.00 | 85 | 1006.3 |
| 20260506110042 | 60 | 219 | 0.0 | 0.0 | 0.00 | 0.81 | 0.00 | 81 | 1006.2 |
| 20260506104535 | 60 | 219 | 0.0 | 0.0 | 0.00 | 0.81 | 0.00 | 78 | 1006.0 |
| 20260506103033 | 60 | 219 | 0.0 | 0.0 | 0.00 | 0.81 | 0.00 | 79 | 1006.0 |
| 20260506101535 | 61 | 219 | 0.0 | 0.0 | 0.00 | 0.81 | 0.00 | 75 | 1005.9 |
| 20260506100036 | 60 | 219 | 0.0 | 0.0 | 0.00 | 0.81 | 0.00 | 74 | 1005.5 |
| 20260506094530 | 61 | 219 | 0.0 | 0.0 | 0.00 | 0.81 | 0.00 | 77 | 1005.4 |
| 20260506093033 | 61 | 219 | 0.0 | 0.0 | 0.00 | 0.81 | 0.00 | 72 | 1005.4 |
| 20260506091526 | 61 | 219 | 0.0 | 0.0 | 0.00 | 0.81 | 0.00 | 70 | 1005.6 |
| 20260506090024 | 61 | 219 | 0.0 | 0.0 | 0.00 | 0.81 | 0.00 | 70 | 1005.7 |
| 20260506084523 | 61 | 219 | 0.0 | 0.0 | 0.00 | 0.81 | 0.00 | 69 | 1005.7 |
| 20260506083028 | 61 | 219 | 0.0 | 0.0 | 0.00 | 0.81 | 0.00 | 68 | 1005.8 |
| 20260506081519 | 62 | 219 | 0.0 | 0.0 | 0.00 | 0.81 | 0.00 | 70 | 1005.8 |
| 20260506073015 | 62 | 219 | 0.0 | 0.0 | 0.00 | 0.81 | 0.00 | 64 | 1005.9 |
| 20260506071517 | 63 | 219 | 0.0 | 0.0 | 0.00 | 0.81 | 0.00 | 61 | 1005.9 |
| 20260506061504 | 64 | 219 | 0.0 | 0.0 | 0.00 | 0.81 | 0.00 | 59 | 1006.5 |